Location: Street
(51.1247°N, 2.7429°W)
Time: 05:09:37
(UTC+01:00)

X-37B - Pass Details

Date: 03 August 2021
Orbit: 381 x 393 km, 45.0° (Epoch: 29 August)

Event Time Altitude Azimuth Distance (km) Brightness Sun altitude
Exits shadow 04:12:17 - 172° (S) 1,451 3.1 -11.5°
Reaches altitude 10° 04:12:49 10° 162° (SSE) 1,394 3.1 -11.4°
Maximum altitude 04:13:23 10° 152° (SSE) 1,374 3.2 -11.3°
Drops below altitude 10° 04:13:56 10° 142° (SE) 1,395 3.3 -11.3°
Sets 04:17:34 0° 98° (E) 2,253 5.0 -10.9°
